User: anonymous   Login
Location: Champaign/Urbana Astronomical Society Observatory
(40.0333°N, 88.2833°W)
Time: 05:10:32
(UTC-05:00)
Language:

TIGRISAT - Orbit

View from above orbital plane
View from above orbital plane
View from above satellite
View from above satellite

Ground track
Ground track

The orbit data is extracted from the following two-line orbital elements,

1 40043U 14033AK  19145.66593731  .00000079  00000-0  19031-4 0  9996
2 40043  97.7609  14.5255 0060056 173.0087 187.1974 14.74260567265064
Epoch (UTC): 25 May 2019 15:58:56
Eccentricity: 0.0060056
inclination: 97.7609°
perigee height: 605 km
apogee height: 689 km
right ascension of ascending node: 14.5255°
argument of perigee: 173.0087°
revolutions per day: 14.74260567
mean anomaly at epoch: 187.1974°
orbit number at epoch: 26506

The dashed part of the orbit path shows where the satellite is in the earth's shadow,  

DLR